Lexington Weather

Lexington, Massachusetts, USA

24°F
1/23/2020 8:30am 
  • Lexington Conditions: Partly cloudy
  • Temperature: 24.1°F / -4.4°CWarmer 2.4°F than last hour.
  • Dew Point: 18.1°FIncreased 1.0°Fsince last hour.
  • Relative Humidity: 78%Decreased 4.0% since last hour.
  • Wind: Wind from WSW WSW Calm, 10-min avg: 1 mph, gust: 7 mph
  • Barometer: 30.33 in Steady
  • Visibility: 10 miles
  • Snow Today: 0.0 in
  •   

Regional Weather Roundup
for Boston / Norton, MA

        
000
ASUS41 KBOX 230910
RWRBOX

REGIONAL WEATHER ROUNDUP
NATIONAL WEATHER SERVICE BOSTON/NORTON MA
400 AM EST THU JAN 23 2020

NOTE:  "FAIR" INDICATES FEW OR NO CLOUDS BELOW 12,000 FEET WITH NO 
SIGNIFICANT WEATHER AND/OR OBSTRUCTIONS TO VISIBILITY.

MAZALL-231000-
EASTERN MASSACHUSETTS
  
CITY           SKY/WX    TMP DP  RH WIND       PRES   REMARKS
BOSTON         FAIR      28  16  60 SW6       30.35F WCI  22          
BEVERLY        FAIR      24  15  68 SW3       30.34F                  
LAWRENCE       FAIR      18  14  84 CALM      30.36F                  
BEDFORD        FAIR      14  10  84 CALM      30.34F                  
BLUE HILL        N/A     29  14  53 SW13      30.31F WCI  19          
NORWOOD        FAIR      13   6  74 SE3       30.36F                  
MARSHFIELD     FAIR      23  21  93 SW5       30.37R WCI  17          
PLYMOUTH       FAIR      18  15  88 CALM      30.37F                  
TAUNTON        FAIR      12   9  87 CALM      30.37F                  
NEW BEDFORD    FAIR      17  14  88 CALM      30.37F                  
$$

MAZALL-231000-
CAPE COD AND THE ISLANDS
  
CITY           SKY/WX    TMP DP  RH WIND       PRES   REMARKS
FALMOUTH       CLEAR     14  10  85 CALM      30.38F                  
HYANNIS        FAIR      18  13  80 CALM      30.37F                  
CHATHAM        FAIR      22  20  92 SW3       30.39S                  
PROVINCETOWN   FAIR      32  25  75 SW10      30.38S WCI  24          
NANTUCKET      FAIR      22  20  92 NW3       30.38F                  
MARTHAS VNYRD  FAIR      14  10  84 CALM      30.38F                  
$$
 
MAZALL-231000-
CENTRAL AND WESTERN MASSACHUSETTS
  
CITY           SKY/WX    TMP DP  RH WIND       PRES   REMARKS
WORCESTER      FAIR      27  12  53 W13       30.29F WCI  16          
FITCHBURG      FAIR      14  10  84 SE3       30.34F                  
ORANGE         FAIR       4  -2  76 CALM      30.36S                  
SPRINGFIELD    FAIR       6   2  82 NE3       30.35F                  
WESTFIELD      NOT AVBL                                               
NORTH ADAMS    FAIR       7   2  80 CALM      30.37S                  
PITTSFIELD     FAIR      11   6  81 CALM      30.30F                  
$$
 
RIZALL-231000-
RHODE ISLAND
  
CITY           SKY/WX    TMP DP  RH WIND       PRES   REMARKS
PROVIDENCE     CLEAR     21  18  86 W3        30.38F                  
NEWPORT        FAIR      25  18  74 W3        30.37F                  
BLOCK ISLAND   FAIR      29  25  85 W6        30.39F WCI  23          
SMITHFIELD     FAIR      20  15  81 S3        30.35F                  
WESTERLY       FAIR      20  14  77 CALM      30.39F                  
$$
 
CTZALL-231000-
CONNECTICUT
  
CITY           SKY/WX    TMP DP  RH WIND       PRES   REMARKS
BRADLEY INTL   FAIR      13   8  81 CALM      30.36F                  
HARTFORD       FAIR      16  13  88 S3        30.38F                  
BRIDGEPORT     FAIR      21  17  84 CALM      30.39F                  
DANBURY        FAIR      13   9  84 CALM      30.37F                  
GROTON         FAIR      19  19 100 CALM      30.39F                  
NEW HAVEN      FAIR      19  14  81 CALM      30.38F                  
CHESTER        NOT AVBL                                               
MERIDEN        FAIR      15  11  83 CALM      30.38F                  
WILLIMANTIC    FAIR      12   8  84 CALM      30.39F                  
OXFORD         FAIR      20  15  81 CALM      30.35F                  
$$

MEZ002-015-021-024-NHZ003-005-008-011-012-014-VTZ005-008-231000-
NORTHERN NEW ENGLAND
  
CITY           SKY/WX    TMP DP  RH WIND       PRES   REMARKS
PORTLAND ME    FAIR      24  13  62 S5        30.31F WCI  18          
BANGOR ME      FAIR      20  16  84 S3        30.29F                  
CONCORD NH     FAIR       7   4  87 CALM      30.33F                  
MANCHESTER NH  FAIR      15  11  83 S3        30.32F                  
NASHUA NH      FAIR      10   9  95 NW5       30.35F WCI   2          
PORTSMOUTH NH  PTCLDY    16  13  86 SW5       30.32F WCI   9          
JAFFREY NH     FAIR       9   6  88 CALM      30.30S                  
KEENE NH       FAIR       4   1  88 CALM      30.37S                  
BURLINGTON VT  FAIR      29  15  56 S6        30.31S WCI  23          
MT. WASHINGTON PTCLDY    21  -6  30 W56         N/A  WCI  -2          
$$

NYZ052-076-231000-
EASTERN NEW YORK
  
CITY           SKY/WX    TMP DP  RH WIND       PRES   REMARKS
ALBANY         FAIR      15  10  80 CALM      30.38S                  
NEW YORK CITY  FAIR      32  20  61 CALM      30.39S                  
$$
 
ANZALL-231000-
MARINE OBSERVATIONS
  
STATION/POSITION TIME  TEMP    WIND        PRES    VSBY  WAVE
                       AIR SEA DIR/SP/G                  HT/PER
                 (UTC) (F)     (DEG/KT/KT) (MB)    (MI)  (FT/S)
BOSTON BUOY      0850   35 42  260/ 10/ 12 1027.4F         1/11
BUZZARDS BAY     NOT AVBL
NANTUCKET SOUND  0840                        N/A           0
MASS BAY-STELLWA 0804   35 41  260/ 10/ 12 1026.1F  1 7/8  2/ 3
ISLE OF SHOALS   NOT AVBL
S OF BLOCK IS    0830      45                N/A           2/ 8
$$

......................KEY.........................
  SKY/WX - SKY CONDITION/PRESENT WEATHER
  TMP    - TEMPERATURE IN FAHRENHEIT
  DWPT   - DEWPOINT IN FAHRENHEIT
  RH     - RELATIVE HUMIDITY IN PERCENT
  WIND   - DIRECTION AND SPEED IN MPH
  PRES   - MEAN SEA LEVEL PRESSURE IN INCHES OF HG
  WCI    - WIND CHILL INDEX
  VSB    - VISIBILITY IN MILES
  HX     - HEAT INDEX
  TC     - TEMPERATURE IN CELSIUS
  VRB    - VARIABLE WIND DIRECTION
  N/A    - NOT AVAILABLE
  
      

Other recent Regional Weather Roundups

Thu Jan 23, 8:10am

Thu Jan 23, 8:00am

Thu Jan 23, 7:10am

Thu Jan 23, 7:01am

Thu Jan 23, 6:10am

Thu Jan 23, 6:00am

Thu Jan 23, 5:10am

Thu Jan 23, 5:00am

Thu Jan 23, 4:01am

Thu Jan 23, 3:10am

Thu Jan 23, 3:00am

Thu Jan 23, 2:10am

Thu Jan 23, 2:00am

Thu Jan 23, 1:10am

Thu Jan 23, 1:00am

Thu Jan 23, 12:10am

Thu Jan 23, 12:00am

Wed Jan 22, 11:10pm

Wed Jan 22, 11:01pm

Wed Jan 22, 10:10pm

Wed Jan 22, 10:00pm

Wed Jan 22, 9:10pm

Wed Jan 22, 9:00pm

Wed Jan 22, 8:10pm

Wed Jan 22, 8:01pm

Wed Jan 22, 7:10pm

Wed Jan 22, 7:00pm

Wed Jan 22, 6:10pm

Wed Jan 22, 6:01pm

Wed Jan 22, 5:10pm

Wed Jan 22, 5:00pm

Wed Jan 22, 4:10pm

Wed Jan 22, 4:00pm

Wed Jan 22, 3:10pm

Wed Jan 22, 3:00pm

Wed Jan 22, 2:10pm

Wed Jan 22, 2:00pm

Wed Jan 22, 1:10pm

Wed Jan 22, 1:00pm

Wed Jan 22, 12:10pm

Wed Jan 22, 12:00pm

Wed Jan 22, 11:10am

Wed Jan 22, 11:00am

Wed Jan 22, 10:10am

Wed Jan 22, 10:01am

Wed Jan 22, 9:10am

Wed Jan 22, 9:00am

Wed Jan 22, 8:10am

Wed Jan 22, 8:00am

Wed Jan 22, 7:10am

Wed Jan 22, 7:00am

Wed Jan 22, 6:10am

Wed Jan 22, 6:00am

Wed Jan 22, 5:10am

Wed Jan 22, 5:00am

Wed Jan 22, 4:10am

Wed Jan 22, 4:00am

Wed Jan 22, 3:10am

Wed Jan 22, 3:01am

Wed Jan 22, 2:10am

Wed Jan 22, 2:00am

Wed Jan 22, 1:10am

Wed Jan 22, 1:00am

Wed Jan 22, 12:10am

Wed Jan 22, 12:00am

Tue Jan 21, 11:10pm

Tue Jan 21, 11:00pm

Tue Jan 21, 10:10pm

Tue Jan 21, 10:00pm

Tue Jan 21, 9:10pm

Tue Jan 21, 9:01pm

Tue Jan 21, 8:10pm

Tue Jan 21, 8:00pm

Tue Jan 21, 7:10pm

Tue Jan 21, 7:00pm

Tue Jan 21, 6:10pm

Tue Jan 21, 6:01pm

Tue Jan 21, 5:10pm

Tue Jan 21, 5:00pm

Tue Jan 21, 4:10pm

Tue Jan 21, 4:00pm

Tue Jan 21, 3:10pm

Tue Jan 21, 3:01pm

Tue Jan 21, 2:10pm

Tue Jan 21, 2:00pm

Tue Jan 21, 1:10pm

Tue Jan 21, 1:00pm

Tue Jan 21, 12:10pm

Tue Jan 21, 12:00pm

Tue Jan 21, 11:10am

Tue Jan 21, 11:00am

Tue Jan 21, 10:10am

Tue Jan 21, 10:00am

Tue Jan 21, 9:10am

Tue Jan 21, 9:00am

Tue Jan 21, 8:10am

Tue Jan 21, 8:00am

Tue Jan 21, 7:10am

Tue Jan 21, 7:00am

Tue Jan 21, 6:10am

Tue Jan 21, 6:00am

Tue Jan 21, 5:10am

Tue Jan 21, 5:00am

Tue Jan 21, 4:10am

Tue Jan 21, 4:00am

Tue Jan 21, 3:10am

Tue Jan 21, 3:00am

Tue Jan 21, 2:10am

Tue Jan 21, 2:01am

Tue Jan 21, 1:10am

Tue Jan 21, 1:00am

Tue Jan 21, 12:10am

Tue Jan 21, 12:00am

Mon Jan 20, 11:10pm

Mon Jan 20, 11:00pm

Mon Jan 20, 10:10pm

Mon Jan 20, 10:00pm

Mon Jan 20, 9:10pm

Mon Jan 20, 9:00pm

Mon Jan 20, 8:10pm

Mon Jan 20, 8:00pm

Mon Jan 20, 7:10pm

Mon Jan 20, 7:00pm

Mon Jan 20, 6:10pm

Mon Jan 20, 6:00pm

Mon Jan 20, 5:10pm

Mon Jan 20, 5:00pm

Mon Jan 20, 4:10pm

Mon Jan 20, 4:01pm

Mon Jan 20, 3:10pm

Mon Jan 20, 3:00pm

Mon Jan 20, 2:10pm

Mon Jan 20, 2:00pm

Mon Jan 20, 1:10pm

Mon Jan 20, 1:00pm

Mon Jan 20, 12:10pm

Mon Jan 20, 12:00pm

Mon Jan 20, 11:10am

Mon Jan 20, 11:00am

Mon Jan 20, 10:10am

Mon Jan 20, 10:00am

Mon Jan 20, 9:10am

Mon Jan 20, 9:00am

Meta data:

ID: d5dd131b-5a14-4458-b6db-32288b85cb3e
Link: https://api.weather.gov/products/d5dd131b-5a14-4458-b6db-32288b85cb3e